Temperature
18 18 17 17 17 17 17 17 17 17 17 17 17 17 17 17 17 17 17 17 17 17 17 17 17 17 17 17 17 17 17 17 17 18 18 18 18 18 18 18 18 18 18
18 18 18 17 17 17 17 17 17 17 17 17 17 17 17 17 17 17 17 17 17 17 17 17 17 17 17 17 17 17 17 17 17 17 18 18 17 17 17 17 17 17 17
18 18 18 18 17 17 17 17 17 17 17 17 17 17 17 17 17 17 17 17 17 17 17 17 17 17 17 17 17 17 17 17 17 17 17 17 17 17 17 17 17 17 17
18 18 18 17 17 17 17 17 17 17 17 17 17 17 17 17 17 17 17 17 17 17 17 17 17 17 17 17 17 17 17 17 17 17 17 17 17 17 17 17 17 17 17
18 18 17 17 17 17 17 17 17 17 17 17 17 17 16 16 17 17 17 17 17 17 17 17 17 17 17 17 17 17 17 17 17 17 17 17 17 17 17 17 17 17 17
18 17 17 17 17 17 17 17 17 17 17 17 17 16 16 16 16 16 16 16 16 17 16 17 17 17 17 17 17 17 17 17 17 17 17 17 17 17 17 17 17 17 17
17 17 17 17 17 17 17 17 17 17 17 17 16 16 16 16 16 16 16 16 16 16 16 16 16 16 16 16 17 17 17 17 17 17 17 17 17 17 17 17 17 17 17
18 17 17 17 17 17 17 17 17 17 17 17 16 16 16 16 16 16 16 16 16 16 16 16 16 16 16 16 16 16 16 17 17 16 16 16 16 16 16 16 17 17 16
17 17 17 17 17 17 17 17 16 16 16 16 16 16 16 16 16 16 16 16 16 16 16 16 16 16 16 16 16 16 16 16 16 16 16 16 16 16 16 16 16 16 16
17 17 17 17 17 17 17 16 16 16 16 16 16 16 16 16 16 16 16 16 16 16 16 16 16 16 16 16 16 16 16 16 16 16 16 16 16 16 16 16 16 16 16
18 17 17 17 17 17 17 16 16 16 16 16 16 16 16 16 16 16 16 16 16 16 16 16 16 16 16 16 16 16 16 16 16 16 16 16 16 16 16 16 16 16 16
18 17 17 17 17 17 16 16 16 16 16 16 16 16 16 16 16 16 16 16 16 16 16 16 15 16 16 16 16 16 16 16 16 16 16 16 16 16 16 16 16 16 15
17 17 17 17 17 16 16 16 16 16 16 16 16 16 16 16 16 16 16 16 15 16 15 15 15 15 15 15 15 15 15 15 15 15 15 16 15 15 15 15 15 15 15
17 17 17 17 17 16 16 16 16 16 16 16 16 16 16 16 16 16 16 16 15 15 15 15 15 15 15 15 15 15 15 15 15 15 15 15 15 15 15 15 15 15 15
17 17 17 17 17 16 16 16 16 16 16 16 16 16 15 15 15 15 15 15 15 15 15 15 15 15 15 15 15 15 15 15 15 15 15 15 15 15 15 15 15 15 15
17 17 17 17 17 16 16 16 16 16 15 15 15 15 15 15 15 15 15 15 15 15 15 15 15 15 15 15 15 15 15 15 15 15 15 15 15 15 15 15 15 15 14
18 17 17 17 17 16 16 16 16 15 15 15 15 15 15 15 15 15 15 15 15 15 15 15 15 15 15 15 15 15 15 15 14 14 14 14 15 15 15 15 15 14 14
18 17 17 17 16 16 16 16 16 15 15 15 15 15 15 15 15 15 15 15 15 15 15 15 15 15 15 14 14 14 14 14 14 14 14 14 14 14 14 14 14 14 14
18 17 17 17 16 16 16 16 15 15 15 15 15 15 15 15 15 15 15 15 14 14 14 14 14 14 14 14 14 14 14 14 14 14 14 14 14 14 14 14 14 14 14
17 17 17 17 16 16 16 16 15 15 15 15 15 15 15 15 14 14 14 14 14 14 14 14 14 14 14 14 14 14 14 14 14 14 14 14 14 14 14 14 14 14 14
17 17 17 16 16 16 16 16 15 15 15 15 15 15 14 14 14 14 14 14 14 14 14 14 14 14 14 14 14 14 14 14 14 14 14 14 14 14 14 14 14 14 14
17 17 16 16 16 16 16 15 15 15 15 15 14 14 14 14 14 14 14 14 13 13 13 13 13 14 13 14 14 14 13 13 13 13 13 13 13 13 13 13 13 13 13
17 17 16 16 16 16 15 15 15 15 15 15 14 14 14 14 14 14 14 13 13 13 13 13 13 13 13 13 13 13 13 13 13 13 13 13 13 13 13 13 13 13 13
16 16 16 16 16 15 15 15 15 15 15 14 14 14 14 14 13 13 13 13 13 13 13 13 13 13 13 13 13 13 13 13 13 12 13 13 13 13 13 13 13 13 13
16 16 16 16 15 15 15 15 15 14 14 14 14 14 14 14 13 13 13 13 13 13 13 13 13 13 13 13 13 13 13 13 13 13 12 12 12 12 12 12 13 13 13
16 16 15 15 15 15 15 14 14 14 14 14 14 14 14 14 13 13 13 13 13 13 13 13 13 13 13 13 13 13 13 13 13 13 12 12 12 12 12 12 12 12 12
Wind_Speed
2 2 1 3 5 6 7 7 8 8 9 10 10 10 10 10 9 9 9 10 10 10 10 10 10 10 9 9 10 10 10 9 9 9 9 8 7 7 7 6 6 5 5
2 2 2 3 4 6 7 7 8 8 8 9 9 9 9 9 9 9 9 9 9 9 10 10 10 10 10 10 10 10 10 10 10 9 8 7 7 7 7 7 6 5 5
2 2 2 3 4 5 6 7 7 7 7 8 8 8 8 8 8 9 9 9 9 9 9 9 9 10 10 10 10 10 10 10 10 9 8 7 6 6 7 7 6 6 5
2 2 2 3 4 5 6 6 7 7 7 7 8 8 7 7 8 8 8 8 9 9 9 9 9 9 10 10 10 10 10 10 10 9 7 6 5 6 6 6 6 5 5
2 2 2 3 4 4 5 5 6 6 6 7 7 7 7 7 7 8 8 8 8 8 9 9 9 10 10 10 10 10 10 10 9 9 7 6 5 6 7 7 6 6 6
2 2 3 3 4 4 4 4 5 5 6 6 6 6 6 7 7 7 7 7 7 8 8 9 9 10 10 10 10 9 9 9 9 8 7 6 5 6 6 7 6 6 6
2 1 2 3 3 4 4 4 5 5 5 5 5 5 5 6 7 7 7 7 7 7 8 9 10 10 10 9 9 10 10 10 8 7 6 5 5 6 7 7 7 6 6
3 2 2 2 2 3 3 4 4 4 4 5 5 5 5 5 6 6 7 7 7 7 7 8 9 9 9 9 9 9 9 8 7 6 6 5 5 7 7 7 8 8 7
3 3 3 2 2 2 3 3 4 4 4 5 5 6 5 5 5 6 6 6 6 7 7 8 9 9 9 9 9 9 9 9 7 5 5 5 6 7 8 8 8 8 8
4 3 3 4 4 3 3 3 4 5 5 6 6 6 6 6 6 6 5 6 6 7 7 8 8 9 9 9 9 9 9 8 6 6 5 5 6 7 7 8 8 9 9
2 2 2 3 4 3 3 4 5 5 6 7 7 7 7 7 6 5 6 6 7 7 7 8 8 9 9 9 10 9 8 7 6 5 5 6 7 7 7 8 8 8 9
0 1 1 1 2 3 4 5 5 5 7 7 7 7 7 6 6 6 7 7 7 8 8 8 9 9 8 8 9 9 7 7 6 5 6 7 7 7 7 7 8 8 9
1 0 1 1 2 3 3 4 4 4 5 5 6 6 6 6 6 6 6 6 7 8 7 8 8 8 7 7 7 7 7 7 6 6 7 8 8 8 7 8 8 8 9
1 0 1 1 2 2 3 3 3 3 3 3 4 5 5 4 4 4 4 5 5 5 6 6 6 7 8 8 7 7 7 6 6 6 7 9 8 8 7 8 8 8 9
2 1 1 1 2 2 2 2 3 2 2 3 3 4 5 4 3 3 3 4 5 5 5 5 5 6 6 6 7 6 6 6 6 7 7 9 9 8 8 8 8 8 9
3 2 1 2 2 2 2 1 2 2 2 3 3 3 4 4 3 3 3 3 4 4 5 5 5 4 4 5 6 6 6 6 6 6 7 9 11 10 9 8 8 8 9
3 2 2 3 2 2 2 2 2 2 3 3 2 3 4 4 3 3 2 3 3 4 5 6 6 5 4 4 5 5 5 6 6 6 7 8 8 10 10 9 8 8 9
3 2 2 2 3 2 2 2 2 3 3 3 2 3 4 4 4 4 3 2 3 5 5 4 3 4 4 4 4 4 4 4 5 6 7 8 8 8 10 10 8 8 8
3 3 2 2 3 2 2 2 3 3 3 3 3 3 3 4 5 4 3 3 4 4 3 3 3 3 3 3 3 4 4 4 4 5 6 7 8 8 8 9 10 9 8
2 2 2 2 2 2 2 2 3 3 2 3 3 2 3 4 5 5 3 3 4 3 3 3 4 3 3 2 4 5 4 4 4 4 4 6 7 8 8 8 8 8 8
2 2 2 2 2 2 2 2 2 1 1 1 2 2 3 4 4 4 3 3 3 3 3 3 3 3 2 2 3 3 4 5 5 4 4 5 6 7 8 8 8 8 7
1 1 1 2 2 2 2 2 1 1 0 0 1 3 2 3 3 4 3 2 2 3 4 3 3 2 1 2 2 2 2 4 4 5 4 4 5 6 6 7 7 7 7
1 2 2 2 2 1 2 2 3 3 2 2 2 1 1 2 2 3 3 3 3 3 3 2 2 3 2 1 1 2 2 1 1 3 3 4 4 4 4 5 6 6 6
2 1 2 2 2 2 2 3 3 2 1 1 1 0 1 1 2 2 3 3 3 2 2 2 2 2 3 1 1 2 1 3 2 1 2 3 3 3 3 4 5 5 6
0 1 1 2 2 2 2 3 3 1 1 0 0 0 0 1 1 1 2 2 2 2 2 2 2 2 2 2 2 1 2 2 2 2 0 2 2 2 2 3 4 4 5
2 2 2 2 2 2 2 2 2 2 1 1 1 1 0 0 0 0 1 1 2 2 2 2 2 3 2 2 2 2 2 2 2 2 2 0 1 2 2 2 2 2 3
Wind_Direction
270 263 203 93 89 85 83 82 81 82 82 81 81 79 78 78 77 78 79 78 78 77 76 78 79 79 80 83 85 87 89 91 92 93 92 93 93 93 94 94 95 93 103
213 206 147 104 92 91 90 87 85 83 82 82 83 79 77 77 76 78 82 79 79 79 78 77 78 79 81 83 86 86 84 84 84 84 81 79 84 90 94 93 92 93 96
154 166 153 121 100 91 91 90 85 82 83 86 88 82 78 77 76 76 78 78 79 78 77 76 77 78 81 83 84 83 82 83 81 77 70 59 69 84 87 90 91 89 91
151 156 160 137 113 99 92 91 88 85 85 87 89 82 79 80 76 76 76 77 77 77 76 75 76 81 83 85 85 83 82 79 76 73 65 55 58 79 83 85 84 82 82
141 159 173 147 126 108 98 96 93 87 86 87 85 81 78 80 75 75 77 78 77 75 74 75 79 81 82 84 83 82 81 77 72 65 61 54 55 74 81 83 83 80 78
143 151 172 146 129 118 106 99 92 82 82 82 82 80 79 80 79 76 77 78 80 80 77 77 81 81 81 83 81 79 78 74 68 63 57 53 57 74 83 84 81 77 75
140 130 151 141 131 123 114 103 92 84 81 78 76 75 74 75 75 72 77 78 79 79 76 78 81 80 77 79 80 80 78 73 68 61 55 54 63 75 79 83 79 75 74
114 91 88 131 122 115 111 101 87 81 78 74 73 73 73 71 71 70 78 79 78 77 78 79 80 81 78 78 79 80 77 72 66 60 54 55 69 75 75 78 79 76 74
77 68 48 40 59 70 83 94 87 82 77 71 69 68 71 71 74 76 75 77 78 77 80 79 80 80 78 76 77 79 76 70 65 58 57 57 71 80 77 77 80 77 74
58 54 39 35 41 45 56 75 81 77 71 65 61 60 64 62 64 71 71 72 76 79 78 77 77 78 75 72 73 76 76 68 61 55 53 66 75 80 78 76 78 77 76
47 36 34 35 37 46 59 65 64 63 60 58 53 51 57 53 51 53 63 67 71 76 76 75 75 77 73 70 69 71 69 62 59 53 53 68 75 77 80 82 82 78 75
107 360 39 41 41 54 66 66 58 52 54 55 53 51 56 56 51 55 55 56 62 65 65 66 67 67 68 66 65 66 63 58 55 46 52 64 72 77 82 86 84 80 78
192 107 76 106 69 71 66 67 56 51 52 51 53 57 61 57 51 49 49 44 48 55 57 58 58 59 63 68 68 65 62 59 48 42 45 56 65 74 79 83 84 82 81
114 358 68 107 93 76 73 67 64 56 51 47 52 64 69 59 52 47 49 47 49 59 65 60 63 66 65 67 72 69 63 61 49 41 43 50 59 66 72 78 82 83 83
150 208 188 149 136 98 84 72 69 59 63 60 63 71 83 78 67 59 54 52 51 59 69 71 69 68 65 65 68 69 64 58 50 44 38 44 52 59 64 72 77 80 81
189 205 192 152 141 115 113 101 79 66 70 70 67 79 93 94 85 76 62 59 54 60 73 82 80 73 63 64 58 58 58 57 50 47 43 41 47 53 58 64 70 74 78
195 194 187 162 137 141 140 122 85 68 77 73 72 85 95 102 99 95 81 68 66 73 78 81 75 75 70 65 56 52 54 51 48 45 45 42 42 45 49 56 62 67 74
181 177 188 155 144 155 141 115 87 76 78 69 70 80 89 102 106 98 91 81 83 86 84 79 69 73 67 62 56 44 45 44 44 48 49 46 43 39 40 45 49 59 70
178 168 160 136 142 150 136 106 88 76 70 66 68 72 92 104 106 102 95 85 92 88 81 86 70 81 80 71 66 52 43 42 37 49 48 45 45 43 41 39 44 49 62
132 134 141 122 121 128 113 86 69 63 52 52 59 76 107 110 109 103 95 87 96 93 81 78 82 69 79 81 78 60 45 42 42 42 45 46 44 45 46 43 39 40 51
79 99 132 126 130 135 123 116 101 89 42 44 46 64 104 116 115 110 105 100 103 108 112 107 97 85 66 62 74 54 38 41 46 40 44 49 42 43 49 47 44 42 43
141 148 143 150 148 162 161 146 137 136 114 92 39 48 81 110 124 128 125 126 119 114 108 106 109 111 78 53 94 89 36 15 20 31 37 45 39 42 44 45 48 46 46
188 194 181 174 155 152 129 103 78 60 41 36 36 33 39 102 121 126 140 133 128 128 140 147 141 128 137 58 69 125 131 188 349 5 30 40 36 38 32 37 44 44 49
231 201 158 158 143 134 128 131 134 143 166 227 221 227 10 84 118 136 145 146 150 148 153 172 149 136 135 145 67 54 110 147 141 16 0 19 28 36 24 27 36 44 49
106 97 133 128 125 121 124 138 139 141 184 173 92 87 42 19 64 129 156 158 163 163 170 171 151 148 144 150 148 125 88 69 97 138 168 349 8 11 15 21 39 42 47
49 69 88 103 94 101 118 125 138 147 144 133 155 198 240 329 326 71 182 174 173 169 180 184 173 161 157 144 141 142 150 151 164 147 160 202 337 334 356 21 34 42 53
Height
1521 1520 1520 1519 1519 1518 1518 1518 1517 1517 1517 1517 1517 1517 1517 1517 1517 1517 1517 1517 1517 1517 1517 1517 1517 1517 1517 1517 1518 1518 1518 1519 1519 1519 1520 1520 1520 1521 1521 1521 1522 1522 1522
1522 1521 1521 1520 1520 1520 1519 1519 1518 1518 1518 1518 1518 1518 1518 1518 1518 1518 1518 1518 1518 1518 1518 1518 1518 1518 1518 1518 1519 1519 1519 1520 1520 1520 1520 1521 1521 1521 1521 1522 1522 1522 1522
1523 1522 1522 1521 1521 1521 1521 1520 1520 1520 1520 1519 1519 1520 1519 1519 1520 1519 1519 1520 1519 1519 1519 1519 1519 1519 1520 1520 1520 1520 1520 1521 1521 1521 1521 1521 1522 1522 1522 1522 1522 1523 1523
1524 1523 1523 1523 1523 1522 1522 1522 1521 1521 1521 1521 1521 1521 1520 1520 1521 1521 1520 1521 1521 1521 1520 1520 1520 1520 1521 1521 1521 1521 1522 1522 1522 1522 1522 1522 1522 1523 1523 1523 1523 1523 1523
1525 1524 1524 1524 1524 1524 1523 1523 1523 1522 1522 1522 1522 1522 1522 1522 1522 1522 1522 1522 1522 1522 1522 1522 1522 1522 1522 1522 1522 1522 1523 1523 1523 1523 1523 1523 1523 1523 1523 1523 1523 1523 1523
1526 1525 1525 1525 1525 1525 1525 1524 1524 1524 1524 1523 1523 1523 1523 1523 1523 1523 1523 1523 1523 1523 1523 1523 1523 1523 1523 1523 1524 1524 1524 1524 1524 1524 1524 1524 1524 1524 1524 1524 1524 1524 1523
1526 1526 1526 1526 1526 1526 1526 1526 1525 1525 1525 1524 1524 1524 1524 1524 1524 1524 1524 1524 1524 1524 1524 1524 1524 1524 1524 1525 1525 1525 1525 1525 1525 1525 1525 1525 1525 1525 1525 1525 1524 1524 1524
1528 1527 1527 1527 1527 1527 1527 1527 1526 1526 1526 1526 1525 1525 1525 1525 1525 1525 1525 1525 1525 1525 1525 1525 1525 1526 1526 1526 1526 1526 1526 1526 1526 1526 1526 1526 1526 1526 1525 1525 1525 1525 1524
1529 1529 1529 1528 1528 1528 1528 1528 1528 1527 1527 1527 1526 1526 1526 1526 1526 1526 1526 1526 1526 1526 1526 1526 1527 1527 1527 1527 1527 1527 1527 1527 1527 1527 1527 1527 1527 1527 1526 1526 1525 1525 1525
1530 1530 1530 1529 1529 1529 1529 1529 1529 1528 1528 1528 1527 1527 1527 1527 1527 1527 1527 1527 1527 1527 1527 1527 1528 1528 1528 1528 1528 1528 1528 1528 1528 1528 1528 1528 1528 1527 1527 1526 1526 1526 1525
1530 1530 1530 1530 1530 1530 1530 1530 1529 1529 1529 1529 1529 1528 1528 1528 1528 1528 1528 1528 1528 1528 1528 1528 1529 1529 1529 1529 1530 1530 1530 1529 1529 1529 1529 1529 1528 1528 1528 1527 1527 1527 1526
1531 1531 1531 1531 1531 1531 1530 1530 1530 1530 1530 1530 1530 1529 1529 1529 1529 1529 1529 1529 1529 1529 1529 1529 1530 1530 1530 1531 1531 1531 1531 1531 1531 1530 1530 1530 1529 1529 1529 1528 1528 1528 1527
1531 1532 1531 1531 1531 1531 1531 1531 1531 1531 1531 1531 1530 1530 1530 1530 1530 1530 1530 1530 1530 1530 1530 1530 1531 1531 1531 1532 1532 1532 1532 1532 1531 1531 1531 1531 1530 1530 1530 1529 1529 1529 1528
1532 1532 1532 1532 1532 1532 1532 1532 1532 1532 1531 1531 1531 1531 1531 1531 1531 1531 1531 1531 1531 1531 1531 1531 1532 1532 1532 1533 1533 1533 1533 1533 1533 1532 1532 1532 1532 1531 1531 1531 1530 1530 1530
1532 1532 1532 1532 1532 1532 1532 1532 1532 1532 1532 1532 1532 1532 1532 1531 1532 1532 1532 1532 1532 1532 1532 1533 1533 1533 1533 1534 1534 1534 1534 1534 1534 1533 1533 1533 1533 1533 1532 1532 1532 1531 1531
1531 1532 1532 1532 1533 1533 1532 1532 1532 1532 1532 1532 1532 1532 1532 1532 1532 1532 1532 1532 1533 1533 1533 1534 1534 1534 1534 1535 1535 1535 1535 1535 1535 1535 1534 1534 1534 1534 1533 1533 1533 1532 1532
1531 1532 1532 1532 1533 1533 1532 1533 1533 1533 1533 1533 1533 1533 1533 1533 1533 1533 1533 1533 1533 1534 1534 1535 1535 1535 1536 1536 1536 1536 1536 1536 1536 1536 1536 1535 1535 1535 1534 1534 1534 1533 1533
1531 1532 1532 1532 1532 1532 1532 1533 1533 1533 1533 1533 1533 1533 1533 1533 1533 1534 1534 1534 1534 1534 1535 1535 1536 1536 1536 1537 1537 1537 1537 1537 1537 1537 1537 1537 1536 1535 1535 1535 1535 1534 1534
1530 1531 1532 1532 1532 1532 1532 1533 1533 1533 1533 1533 1534 1534 1534 1534 1534 1534 1534 1534 1534 1534 1534 1535 1536 1536 1537 1537 1537 1538 1538 1538 1538 1538 1538 1538 1537 1537 1536 1536 1536 1535 1535
1530 1530 1531 1531 1531 1532 1532 1533 1533 1533 1533 1533 1534 1534 1534 1534 1534 1534 1534 1534 1534 1534 1535 1535 1536 1536 1537 1537 1538 1538 1538 1538 1538 1538 1538 1538 1538 1538 1537 1537 1537 1537 1536
1529 1530 1530 1530 1531 1531 1532 1532 1532 1533 1533 1533 1534 1534 1534 1534 1534 1534 1533 1534 1534 1534 1535 1535 1536 1536 1537 1538 1538 1538 1539 1539 1539 1539 1539 1539 1539 1538 1538 1538 1538 1538 1538
1528 1529 1529 1530 1530 1531 1531 1532 1532 1532 1533 1533 1533 1533 1533 1533 1534 1534 1534 1534 1534 1535 1535 1535 1536 1536 1537 1537 1538 1538 1539 1540 1539 1539 1539 1539 1539 1539 1539 1539 1539 1538 1538
1527 1527 1528 1529 1529 1530 1531 1532 1532 1532 1532 1532 1533 1533 1533 1533 1533 1534 1534 1534 1534 1534 1535 1535 1535 1536 1536 1537 1538 1539 1539 1539 1539 1540 1539 1539 1539 1539 1539 1539 1539 1539 1539
1525 1526 1527 1528 1529 1530 1530 1531 1531 1531 1531 1532 1532 1532 1533 1533 1533 1533 1534 1534 1534 1534 1534 1535 1535 1536 1536 1536 1537 1538 1539 1539 1539 1539 1540 1539 1539 1539 1539 1539 1539 1539 1540
1525 1526 1526 1527 1528 1529 1529 1530 1530 1530 1531 1531 1531 1532 1532 1532 1532 1533 1533 1533 1533 1533 1534 1534 1534 1535 1535 1536 1536 1537 1537 1538 1538 1538 1538 1539 1539 1539 1539 1539 1539 1539 1540
1524 1525 1526 1527 1527 1528 1528 1529 1529 1529 1529 1530 1530 1530 1530 1531 1531 1531 1532 1532 1532 1533 1533 1533 1534 1534 1535 1535 1535 1536 1537 1537 1537 1537 1537 1538 1538 1539 1539 1539 1539 1539 1540